Time,TemperatureF,DewpointF,PressureIn,WindDirection,WindDirectionDegrees,WindSpeedMPH,WindSpeedGustMPH,Humidity,HourlyPrecipIn,Conditions,Clouds,dailyrainin,SoftwareType,DateUTC
2017-11-25 00:02:00,50.5,29.4,29.73,South,169,2.0,5.0,44,0.00,,,0.00,Wunderground v.1.15,2017-11-25 05:02:00,
2017-11-25 00:07:00,50.4,29.8,29.73,SE,134,3.0,9.0,45,0.00,,,0.00,Wunderground v.1.15,2017-11-25 05:07:00,
2017-11-25 00:12:00,50.5,29.4,29.73,SSW,208,6.0,10.0,44,0.00,,,0.00,Wunderground v.1.15,2017-11-25 05:12:00,
2017-11-25 00:17:00,50.5,29.4,29.72,SSW,199,2.0,10.0,44,0.00,,,0.00,Wunderground v.1.15,2017-11-25 05:17:00,
2017-11-25 00:22:00,50.4,29.3,29.72,South,185,2.0,6.0,44,0.00,,,0.00,Wunderground v.1.15,2017-11-25 05:22:00,
2017-11-25 00:24:00,50.4,29.3,29.72,SW,232,4.0,7.0,44,0.00,,,0.00,Wunderground v.1.15,2017-11-25 05:24:00,
2017-11-25 00:29:00,50.5,29.4,29.72,SSE,155,3.0,11.0,44,0.00,,,0.00,Wunderground v.1.15,2017-11-25 05:29:00,
2017-11-25 00:34:00,50.6,29.5,29.72,South,189,6.0,9.0,44,0.00,,,0.00,Wunderground v.1.15,2017-11-25 05:34:00,
2017-11-25 00:39:00,50.5,28.8,29.72,South,171,5.0,9.0,43,0.00,,,0.00,Wunderground v.1.15,2017-11-25 05:39:00,
2017-11-25 00:44:00,50.6,30.0,29.70,South,174,2.0,5.0,45,0.00,,,0.00,Wunderground v.1.15,2017-11-25 05:44:00,
2017-11-25 00:49:00,50.5,29.4,29.70,SSE,161,11.0,11.0,44,0.00,,,0.00,Wunderground v.1.15,2017-11-25 05:49:00,
2017-11-25 00:54:00,50.6,29.5,29.70,SE,136,6.0,8.0,44,0.00,,,0.00,Wunderground v.1.15,2017-11-25 05:54:00,
2017-11-25 00:59:00,50.6,29.5,29.70,SSW,202,8.0,10.0,44,0.00,,,0.00,Wunderground v.1.15,2017-11-25 05:59:00,
2017-11-25 01:04:00,50.5,29.4,29.70,SSW,207,8.0,8.0,44,0.00,,,0.00,Wunderground v.1.15,2017-11-25 06:04:00,
2017-11-25 01:09:00,50.4,29.3,29.70,SSW,209,2.0,8.0,44,0.00,,,0.00,Wunderground v.1.15,2017-11-25 06:09:00,
2017-11-25 01:14:00,50.3,29.7,29.70,SSE,160,6.0,7.0,45,0.00,,,0.00,Wunderground v.1.15,2017-11-25 06:14:00,
2017-11-25 01:19:00,50.3,29.7,29.70,SW,221,5.0,9.0,45,0.00,,,0.00,Wunderground v.1.15,2017-11-25 06:19:00,
2017-11-25 01:24:00,50.4,29.8,29.70,SSW,200,5.0,7.0,45,0.00,,,0.00,Wunderground v.1.15,2017-11-25 06:24:00,
2017-11-25 01:29:00,50.4,29.3,29.70,SSW,198,6.0,8.0,44,0.00,,,0.00,Wunderground v.1.15,2017-11-25 06:29:00,
2017-11-25 01:34:00,50.5,29.9,29.70,South,184,5.0,9.0,45,0.00,,,0.00,Wunderground v.1.15,2017-11-25 06:34:00,
2017-11-25 01:39:00,50.4,29.8,29.70,SSE,159,4.0,9.0,45,0.00,,,0.00,Wunderground v.1.15,2017-11-25 06:39:00,
2017-11-25 01:45:00,50.3,29.7,29.69,South,176,7.0,7.0,45,0.00,,,0.00,Wunderground v.1.15,2017-11-25 06:45:00,
2017-11-25 01:50:00,50.3,29.7,29.69,South,177,5.0,8.0,45,0.00,,,0.00,Wunderground v.1.15,2017-11-25 06:50:00,
2017-11-25 01:55:00,50.3,29.7,29.69,SW,229,6.0,10.0,45,0.00,,,0.00,Wunderground v.1.15,2017-11-25 06:55:00,
2017-11-25 02:00:00,50.2,30.2,29.70,South,189,5.0,10.0,46,0.00,,,0.00,Wunderground v.1.15,2017-11-25 07:00:00,
2017-11-25 02:05:00,50.2,30.2,29.70,SW,228,2.0,7.0,46,0.00,,,0.00,Wunderground v.1.15,2017-11-25 07:05:00,
2017-11-25 02:10:00,50.1,30.1,29.70,WSW,257,6.0,7.0,46,0.00,,,0.00,Wunderground v.1.15,2017-11-25 07:10:00,
2017-11-25 02:15:00,50.1,30.1,29.70,WSW,242,5.0,7.0,46,0.00,,,0.00,Wunderground v.1.15,2017-11-25 07:15:00,
2017-11-25 02:20:00,50.0,30.5,29.70,South,184,4.0,9.0,47,0.00,,,0.00,Wunderground v.1.15,2017-11-25 07:20:00,
2017-11-25 02:25:00,50.2,30.2,29.70,SSW,196,5.0,8.0,46,0.00,,,0.00,Wunderground v.1.15,2017-11-25 07:25:00,
2017-11-25 02:30:00,50.1,30.6,29.70,SSW,205,4.0,8.0,47,0.00,,,0.00,Wunderground v.1.15,2017-11-25 07:30:00,
2017-11-25 02:35:00,50.1,30.6,29.70,SSW,195,5.0,8.0,47,0.00,,,0.00,Wunderground v.1.15,2017-11-25 07:35:00,
2017-11-25 02:40:00,50.3,30.3,29.70,South,174,5.0,12.0,46,0.00,,,0.00,Wunderground v.1.15,2017-11-25 07:40:00,
2017-11-25 02:45:00,50.3,30.8,29.70,South,175,2.0,6.0,47,0.00,,,0.00,Wunderground v.1.15,2017-11-25 07:45:00,
2017-11-25 02:50:00,50.3,30.8,29.70,South,189,4.0,10.0,47,0.00,,,0.00,Wunderground v.1.15,2017-11-25 07:50:00,
2017-11-25 02:55:00,50.3,30.8,29.70,South,172,4.0,10.0,47,0.00,,,0.00,Wunderground v.1.15,2017-11-25 07:55:00,
2017-11-25 03:00:00,50.4,30.9,29.70,South,181,2.0,10.0,47,0.00,,,0.00,Wunderground v.1.15,2017-11-25 08:00:00,
2017-11-25 03:06:00,50.4,30.9,29.70,SSW,209,5.0,5.0,47,0.00,,,0.00,Wunderground v.1.15,2017-11-25 08:06:00,